,,�O�C���x[��],����1,�O�C���x[��],����2,���ԉ��x [��],����3,���Ԏ��x [��],����4,�Q�����x [��],����5,���� [��],����6,�R�����i��󒲎��j���x�m���n,����7
2004/10/1,0:00,10.7,0,92.4,0,25.1,0,51.3,0,21.9,0,24.1,0,24.8,0
2004/10/1,0:15,10.9,0,92.5,0,25,0,51.2,0,21.8,0,24.1,0,24.7,0
2004/10/1,0:30,10.8,0,92.4,0,24.9,0,51,0,21.8,0,24.1,0,24.6,0
2004/10/1,0:45,10.4,0,92.6,0,24.8,0,51,0,21.8,0,24.2,0,24.6,0
2004/10/1,1:00,10.6,0,93.0,0,24.7,0,51,0,21.8,0,24.2,0,24.5,0
2004/10/1,1:15,10.5,0,92.6,0,24.6,0,50.8,0,21.8,0,24.2,0,24.4,0
2004/10/1,1:30,10.3,0,93.6,0,24.5,0,50.6,0,21.8,0,24.2,0,24.3,0
2004/10/1,1:45,10.3,0,93.6,0,24.4,0,50.5,0,21.9,0,24.2,0,24.2,0
2004/10/1,2:00,10.2,0,93.6,0,24.3,0,50.3,0,21.9,0,24.2,0,24.2,0
2004/10/1,2:15,10.1,0,93.8,0,24.2,0,50.1,0,21.8,0,24.2,0,24.1,0
2004/10/1,2:30,10.1,0,93.9,0,24.1,0,50.1,0,21.8,0,24.2,0,24,0
2004/10/1,2:45,10.1,0,93.9,0,24.1,0,49.9,0,21.8,0,24.2,0,23.9,0
2004/10/1,3:00,10.3,0,93.8,0,24,0,49.8,0,21.8,0,24.2,0,23.8,0
2004/10/1,3:15,10.4,0,94.0,0,23.9,0,49.7,0,21.8,0,24.2,0,23.7,0
2004/10/1,3:30,10.5,0,94.0,0,23.8,0,49.6,0,21.7,0,24.2,0,23.6,0
2004/10/1,3:45,10.3,0,93.9,0,23.7,0,49.5,0,21.7,0,24.1,0,23.5,0
2004/10/1,4:00,10.1,0,94.2,0,23.6,0,49.5,0,21.7,0,24.1,0,23.4,0
2004/10/1,4:15,10.2,0,94.2,0,23.5,0,49.4,0,21.7,0,24.1,0,23.4,0
2004/10/1,4:30,10.6,0,94.4,0,23.5,0,49.4,0,21.6,0,24.1,0,23.3,0
2004/10/1,4:45,11,0,94.0,0,23.4,0,49.3,0,21.6,0,24,0,23.2,0
2004/10/1,5:00,11.3,0,93.6,0,23.3,0,49.3,0,21.6,0,24,0,23.1,0
2004/10/1,5:15,11.5,0,92.8,0,23.2,0,49.2,0,21.5,0,24,0,23,0
2004/10/1,5:30,11.5,0,92.4,0,23.1,0,49.2,0,21.5,0,24,0,22.9,0
2004/10/1,5:45,11.6,0,92.4,0,23.1,0,49.2,0,21.4,0,23.9,0,22.9,0
2004/10/1,6:00,11.7,0,92.0,0,23,0,49.6,0,21.4,0,23.9,0,22.8,0
2004/10/1,6:15,11.8,0,91.9,0,23,0,49.8,0,21.3,0,23.9,0,22.8,0
2004/10/1,6:30,12.3,0,91.6,0,22.9,0,49.7,0,21.3,0,23.9,0,22.9,0
2004/10/1,6:45,12.7,0,91.4,0,22.8,0,49.8,0,21.2,0,22.5,0,22.9,0
2004/10/1,7:00,13.1,0,90.2,0,22.8,0,50.2,0,21.1,0,22.5,0,23,0
2004/10/1,7:15,13.4,0,90.2,0,22.9,0,51.2,0,21,0,23.1,0,23.1,0
2004/10/1,7:30,14.3,0,89.4,0,22.9,0,51.8,0,20.9,0,22.8,0,23.2,0
2004/10/1,7:45,15.2,0,87.1,0,22.9,0,52.1,0,20.8,0,22.8,0,23.3,0
2004/10/1,8:00,15.7,0,86.3,0,23,0,52.4,0,20.8,0,22.8,0,23.4,0
2004/10/1,8:15,16.3,0,84.2,0,23.1,0,52.6,0,20.7,0,22.7,0,23.5,0
2004/10/1,8:30,17.1,0,82.3,0,23.2,0,52.8,0,20.7,0,22.7,0,23.6,0
2004/10/1,8:45,18,0,81.1,0,23.4,0,53.6,0,20.7,0,22.8,0,24.2,0
2004/10/1,9:00,18.8,0,78.7,0,23.6,0,54.4,0,20.6,0,22.8,0,24.9,0
2004/10/1,9:15,19.4,0,77.4,0,23.8,0,55,0,20.6,0,22.8,0,25.3,0
2004/10/1,9:30,19.9,0,76.3,0,24,0,55.7,0,20.6,0,22.8,0,25.4,0
2004/10/1,9:45,20.6,0,73.7,0,24.1,0,56.2,0,20.6,0,22.9,0,25.3,0
2004/10/1,10:00,21.3,0,70.0,0,24.3,0,56.6,0,20.7,0,22.9,0,25.6,0
2004/10/1,10:15,22.4,0,62.5,0,24.5,0,56.9,0,20.7,0,22.4,0,25.8,0
2004/10/1,10:30,22.7,0,61.9,0,24.6,0,57.2,0,20.8,0,22.4,0,25.9,0
2004/10/1,10:45,22.3,0,64.2,0,24.7,0,56.6,0,20.9,0,22.4,0,25.9,0
2004/10/1,11:00,22.9,0,60.1,0,24.7,0,56.2,0,20.9,0,22.4,0,25.9,0
2004/10/1,11:15,23.4,0,56.5,0,24.8,0,56.3,0,21,0,22.5,0,26,0
2004/10/1,11:30,23.6,0,54.3,0,25,0,56.3,0,21,0,22.3,0,26.1,0
2004/10/1,11:45,24,0,53.8,0,25,0,55.8,0,21.1,0,22.3,0,26.3,0
2004/10/1,12:00,24.4,0,52.2,0,25.2,0,55.2,0,21.2,0,22.3,0,26.4,0
2004/10/1,12:15,24.9,0,54.2,0,25.3,0,55.1,0,21.3,0,22.3,0,26.6,0
2004/10/1,12:30,25.2,0,50.3,0,25.5,0,54.9,0,21.3,0,22.4,0,26.8,0
2004/10/1,12:45,25.3,0,50.1,0,25.6,0,54.7,0,21.4,0,22.4,0,27,0
2004/10/1,13:00,25.6,0,50.2,0,25.8,0,54.5,0,21.5,0,22.5,0,27.1,0
2004/10/1,13:15,25.9,0,47.6,0,25.9,0,54.2,0,21.6,0,22.5,0,27.4,0
2004/10/1,13:30,25.9,0,48.5,0,26.1,0,53.9,0,21.7,0,22.9,0,27.7,0
2004/10/1,13:45,25.9,0,49.0,0,26.2,0,53.5,0,21.9,0,22.9,0,27.8,0
2004/10/1,14:00,26,0,48.5,0,26.4,0,53.1,0,22.1,0,23,0,27.9,0
2004/10/1,14:15,25.4,0,52.3,0,26.5,0,52.9,0,22.2,0,23,0,28,0
2004/10/1,14:30,24.7,0,55.3,0,26.7,0,52.8,0,22.4,0,23.1,0,28.2,0
2004/10/1,14:45,24.5,0,54.7,0,26.8,0,52.8,0,22.5,0,23.1,0,28.3,0
2004/10/1,15:00,24.3,0,55.8,0,27,0,52.4,0,22.7,0,23.2,0,28.4,0
2004/10/1,15:15,24.1,0,56.1,0,27.1,0,52.3,0,22.8,0,23.2,0,28.6,0
2004/10/1,15:30,23.9,0,57.3,0,27.2,0,52.1,0,22.8,0,23.3,0,28.6,0
2004/10/1,15:45,23.6,0,59.0,0,27.2,0,51.6,0,22.8,0,23.3,0,28.7,0
2004/10/1,16:00,22.6,0,64.7,0,27.3,0,51.9,0,22.8,0,23.4,0,28.7,0
2004/10/1,16:15,21.3,0,70.3,0,27.3,0,51.5,0,22.8,0,23.4,0,28.6,0
2004/10/1,16:30,20.7,0,72.0,0,27.3,0,51.2,0,22.8,0,23.5,0,28.6,0
2004/10/1,16:45,20.4,0,72.7,0,27.1,0,51.1,0,22.8,0,23.5,0,28.5,0
2004/10/1,17:00,19.8,0,77.5,0,27,0,51,0,22.8,0,23.5,0,28.8,0
2004/10/1,17:15,19.3,0,79.5,0,26.9,0,51.2,0,22.8,0,23.6,0,28.9,0
2004/10/1,17:30,18.8,0,81.1,0,27,0,51.4,0,22.8,0,23.6,0,29.1,0
2004/10/1,17:45,18.6,0,82.3,0,26.9,0,51.9,0,22.8,0,23.7,0,28.8,0
2004/10/1,18:00,18.1,0,85.4,0,26.8,0,52.5,0,22.8,0,23.7,0,28.4,0
2004/10/1,18:15,17.9,0,86.2,0,26.8,0,52.6,0,22.8,0,23.7,0,28.2,0
2004/10/1,18:30,17.5,0,87.3,0,26.7,0,52.7,0,22.9,0,23.8,0,27.9,0
2004/10/1,18:45,17.3,0,88.1,0,26.7,0,52.8,0,22.9,0,23.8,0,27.8,0
2004/10/1,19:00,17,0,88.6,0,26.5,0,52.9,0,23,0,22.9,0,27.6,0
2004/10/1,19:15,16.9,0,89.4,0,26.6,0,52.7,0,23,0,22.9,0,27.5,0
2004/10/1,19:30,16.3,0,89.1,0,26.6,0,52.8,0,23.1,0,22.9,0,27.4,0
2004/10/1,19:45,16.2,0,90.3,0,26.6,0,53,0,23.1,0,23,0,27.3,0
2004/10/1,20:00,15.7,0,89.8,0,26.7,0,53,0,23.2,0,23,0,27.3,0
2004/10/1,20:15,15.7,0,90.5,0,26.7,0,53,0,23.2,0,23,0,27.2,0
2004/10/1,20:30,15.4,0,90.6,0,26.7,0,53,0,23.1,0,23.1,0,27.2,0
2004/10/1,20:45,15.1,0,90.9,0,26.8,0,52.9,0,23,0,23.1,0,27.2,0
2004/10/1,21:00,15.1,0,91.1,0,26.8,0,52.6,0,23,0,23.1,0,27.1,0
2004/10/1,21:15,14.9,0,91.5,0,26.8,0,52.6,0,23,0,23.2,0,27,0
2004/10/1,21:30,14.7,0,91.4,0,26.7,0,52.6,0,23,0,23.2,0,26.9,0
2004/10/1,21:45,14.8,0,91.9,0,26.7,0,52.5,0,23,0,23.3,0,26.9,0
2004/10/1,22:00,15,0,91.6,0,26.7,0,52.3,0,23,0,23.3,0,26.8,0
2004/10/1,22:15,14.8,0,91.3,0,26.7,0,52.1,0,23,0,23.4,0,26.8,0
2004/10/1,22:30,14.8,0,92.1,0,26.7,0,52,0,23,0,23.4,0,26.7,0
2004/10/1,22:45,14.5,0,91.5,0,26.6,0,51.7,0,23,0,23.5,0,26.7,0
2004/10/1,23:00,14.4,0,91.9,0,26.5,0,51.6,0,23,0,23.5,0,26.6,0
2004/10/1,23:15,14.4,0,91.9,0,26.5,0,51.4,0,22.9,0,23.5,0,26.5,0
2004/10/1,23:30,14.3,0,91.5,0,26.4,0,51.3,0,22.9,0,23.6,0,26.4,0
2004/10/1,23:45,14.4,0,91.9,0,26.3,0,51.1,0,22.9,0,23.6,0,26.3,0
2004/10/2,0:00,14.6,0,91.9,0,26.3,0,51.3,0,22.9,0,23.6,0,26.2,0
2004/10/2,0:15,14.5,0,91.5,0,26.2,0,51.3,0,22.9,0,23.7,0,26.2,0
2004/10/2,0:30,14,0,91.5,0,26.1,0,51.1,0,22.9,0,23.7,0,26.1,0
2004/10/2,0:45,13.9,0,91.7,0,26,0,51,0,22.8,0,23.7,0,26,0
2004/10/2,1:00,14.2,0,92.2,0,25.9,0,50.8,0,22.8,0,23.8,0,25.9,0
2004/10/2,1:15,14.3,0,92.3,0,25.9,0,50.7,0,22.8,0,23.8,0,25.8,0
2004/10/2,1:30,14.5,0,92.3,0,25.8,0,50.6,0,22.8,0,23.8,0,25.7,0
2004/10/2,1:45,14.4,0,91.7,0,25.7,0,50.6,0,22.8,0,23.9,0,25.6,0
2004/10/2,2:00,14.2,0,91.7,0,25.6,0,50.5,0,22.8,0,23.9,0,25.5,0
2004/10/2,2:15,14.4,0,92.0,0,25.5,0,50.5,0,22.8,0,23.9,0,25.4,0
2004/10/2,2:30,14.8,0,92.0,0,25.4,0,50.4,0,22.8,0,23.9,0,25.3,0
2004/10/2,2:45,14.4,0,91.3,0,25.4,0,50.3,0,22.8,0,24,0,25.3,0
2004/10/2,3:00,14.7,0,91.8,0,25.3,0,50.2,0,22.7,0,24,0,25.2,0
2004/10/2,3:15,14.8,0,91.5,0,25.2,0,50.2,0,22.7,0,24,0,25.1,0
2004/10/2,3:30,15,0,91.6,0,25.1,0,50.1,0,22.7,0,24,0,25.1,0
2004/10/2,3:45,14.9,0,90.6,0,25.1,0,50.1,0,22.7,0,24.1,0,25,0
2004/10/2,4:00,14.9,0,91.5,0,25,0,50.1,0,22.6,0,24.1,0,24.9,0
2004/10/2,4:15,14.9,0,90.8,0,24.9,0,50.1,0,22.6,0,24.1,0,24.9,0
2004/10/2,4:30,14.8,0,91.1,0,24.9,0,50,0,22.6,0,24.1,0,24.8,0
2004/10/2,4:45,15.7,0,90.3,0,24.8,0,50,0,22.5,0,24.1,0,24.7,0
2004/10/2,5:00,17.5,0,85.4,0,24.8,0,50,0,22.5,0,24.1,0,24.7,0
2004/10/2,5:15,20.7,0,74.7,0,24.7,0,49.9,0,22.5,0,24.2,0,24.6,0
2004/10/2,5:30,21.4,0,71.9,0,24.7,0,50,0,22.5,0,24.2,0,24.6,0
2004/10/2,5:45,21.6,0,70.9,0,24.7,0,50.4,0,22.5,0,24.2,0,24.6,0
2004/10/2,6:00,21.8,0,70.0,0,24.7,0,51,0,22.5,0,24.2,0,24.6,0
2004/10/2,6:15,22.1,0,69.9,0,24.6,0,51.2,0,22.5,0,24.2,0,24.7,0
2004/10/2,6:30,22.4,0,68.6,0,24.7,0,51.4,0,22.5,0,22.9,0,24.7,0
2004/10/2,6:45,22.5,0,69.0,0,24.7,0,51.7,0,22.4,0,22.9,0,24.9,0
2004/10/2,7:00,22.3,0,70.6,0,24.7,0,52.3,0,22.4,0,22.9,0,25.1,0
2004/10/2,7:15,21.7,0,76.1,0,24.8,0,52.9,0,22.4,0,22.5,0,25.2,0
2004/10/2,7:30,19.9,0,87.3,0,24.9,0,53.3,0,22.4,0,23,0,25.4,0
2004/10/2,7:45,19.3,0,89.1,0,25,0,53.7,0,22.3,0,23,0,25.4,0
2004/10/2,8:00,18.7,0,88.0,0,25.1,0,54.3,0,22.3,0,23.1,0,25.6,0
2004/10/2,8:15,18.5,0,88.7,0,25.1,0,54.3,0,22.3,0,22.6,0,25.6,0
2004/10/2,8:30,18.1,0,86.9,0,25.2,0,54.5,0,22.3,0,22.6,0,25.6,0
2004/10/2,8:45,17.9,0,87.6,0,25.3,0,54.3,0,22.3,0,22.6,0,25.6,0
2004/10/2,9:00,17.8,0,88.0,0,25.4,0,54,0,22.4,0,22.9,0,25.6,0
2004/10/2,9:15,17.7,0,88.5,0,25.4,0,53.8,0,22.4,0,22.9,0,25.6,0
2004/10/2,9:30,17.4,0,89.1,0,25.4,0,53.7,0,22.4,0,22.9,0,25.5,0
2004/10/2,9:45,17.5,0,87.3,0,25.4,0,53.6,0,22.4,0,23,0,25.5,0
2004/10/2,10:00,17.4,0,86.0,0,25.5,0,53.5,0,22.4,0,23,0,25.5,0
2004/10/2,10:15,17.2,0,86.4,0,25.5,0,53.5,0,22.4,0,23,0,25.6,0
2004/10/2,10:30,16.8,0,88.6,0,25.5,0,53.5,0,22.4,0,22.5,0,25.6,0
2004/10/2,10:45,16.8,0,88.1,0,25.6,0,53.5,0,22.4,0,22.5,0,25.7,0
2004/10/2,11:00,16.7,0,88.2,0,25.6,0,53.4,0,22.5,0,22.5,0,25.7,0
2004/10/2,11:15,16.5,0,88.9,0,25.6,0,53.4,0,22.5,0,22.6,0,25.7,0
2004/10/2,11:30,15.9,0,89.0,0,25.6,0,53.3,0,22.5,0,22.6,0,25.7,0
2004/10/2,11:45,15.5,0,88.6,0,25.6,0,53.2,0,22.5,0,22.6,0,26.1,0
2004/10/2,12:00,15.3,0,88.7,0,25.6,0,53.2,0,22.5,0,22.6,0,26.4,0
2004/10/2,12:15,15.3,0,88.5,0,25.6,0,53.3,0,22.4,0,22.6,0,26.6,0
2004/10/2,12:30,15.3,0,89.4,0,25.6,0,53.1,0,22.5,0,22.7,0,26.5,0
2004/10/2,12:45,15.3,0,89.2,0,25.6,0,53.1,0,22.5,0,22.7,0,26.3,0
2004/10/2,13:00,15.2,0,88.9,0,25.6,0,53.1,0,22.5,0,22.7,0,26.1,0
2004/10/2,13:15,15,0,88.8,0,25.5,0,52.9,0,22.4,0,22.8,0,25.9,0
2004/10/2,13:30,15.1,0,86.9,0,25.5,0,52.8,0,22.4,0,22.8,0,25.7,0
2004/10/2,13:45,15.3,0,85.9,0,25.4,0,52.7,0,22.3,0,22.9,0,25.9,0
2004/10/2,14:00,15.1,0,88.3,0,25.4,0,52.9,0,22.2,0,22.9,0,25.9,0
2004/10/2,14:15,15.1,0,88.2,0,25.4,0,53,0,22.2,0,22.9,0,25.9,0
2004/10/2,14:30,15.1,0,88.2,0,25.5,0,53.1,0,22.2,0,23,0,25.9,0
2004/10/2,14:45,15.1,0,88.5,0,25.5,0,53.1,0,22.1,0,22.5,0,25.9,0
2004/10/2,15:00,15,0,89.2,0,25.5,0,53.1,0,22.1,0,22.6,0,25.9,0
2004/10/2,15:15,14.8,0,88.7,0,25.5,0,53.2,0,22,0,22.6,0,25.9,0
2004/10/2,15:30,15,0,81.0,0,25.6,0,53.2,0,22,0,22.7,0,25.8,0
2004/10/2,15:45,15.1,0,82.0,0,25.6,0,53.2,0,21.9,0,22.7,0,25.8,0
2004/10/2,16:00,14.8,0,80.4,0,25.6,0,53,0,21.9,0,22.4,0,25.8,0
2004/10/2,16:15,14.6,0,84.8,0,25.6,0,52.9,0,21.9,0,22.4,0,25.7,0
2004/10/2,16:30,14.4,0,88.0,0,25.6,0,52.9,0,21.9,0,22.4,0,25.6,0
2004/10/2,16:45,14.2,0,88.4,0,25.6,0,52.8,0,21.9,0,22.5,0,25.6,0
2004/10/2,17:00,14.1,0,88.9,0,25.6,0,52.8,0,21.9,0,22.5,0,25.5,0
2004/10/2,17:15,14,0,89.6,0,25.6,0,52.8,0,21.8,0,22.5,0,25.5,0
2004/10/2,17:30,14.1,0,89.9,0,25.5,0,53,0,21.8,0,22.6,0,26.2,0
2004/10/2,17:45,14.1,0,90.1,0,25.6,0,54.3,0,21.8,0,22.6,0,27,0
2004/10/2,18:00,14.2,0,90.1,0,25.6,0,54.2,0,21.7,0,22.7,0,26.5,0
2004/10/2,18:15,14.2,0,89.7,0,25.5,0,53.5,0,21.7,0,22.7,0,25.8,0
2004/10/2,18:30,14.2,0,89.2,0,25.5,0,53.2,0,21.6,0,22.7,0,25.4,0
2004/10/2,18:45,14.2,0,89.1,0,25.5,0,53.3,0,21.6,0,22.8,0,25.5,0
2004/10/2,19:00,14.2,0,89.7,0,25.4,0,53.6,0,21.5,0,22.8,0,25.6,0
2004/10/2,19:15,14.2,0,88.9,0,25.5,0,53.8,0,21.5,0,22.4,0,25.6,0
2004/10/2,19:30,14.2,0,89.5,0,25.5,0,53.9,0,21.5,0,22.5,0,25.6,0
2004/10/2,19:45,14.1,0,90.2,0,25.5,0,53.9,0,21.5,0,22.5,0,25.6,0
2004/10/2,20:00,14.1,0,90.0,0,25.5,0,53.8,0,21.4,0,22.5,0,25.6,0
2004/10/2,20:15,14,0,90.0,0,25.5,0,53.7,0,21.4,0,22.6,0,25.5,0
2004/10/2,20:30,13.9,0,89.9,0,25.6,0,53.5,0,21.4,0,22.6,0,25.5,0
2004/10/2,20:45,13.9,0,89.0,0,25.5,0,53.2,0,21.4,0,22.7,0,25.4,0
2004/10/2,21:00,14,0,86.5,0,25.5,0,53,0,21.4,0,22.7,0,25.3,0
2004/10/2,21:15,13.8,0,89.1,0,25.4,0,52.9,0,21.4,0,22.7,0,25.2,0
2004/10/2,21:30,13.6,0,88.2,0,25.4,0,52.8,0,21.4,0,22.8,0,25.2,0
2004/10/2,21:45,13.5,0,87.9,0,25.4,0,52.7,0,21.5,0,22.8,0,25.1,0
2004/10/2,22:00,13.5,0,87.6,0,25.3,0,52.6,0,21.5,0,22.8,0,25,0
2004/10/2,22:15,13.3,0,88.0,0,25.3,0,52.5,0,21.5,0,22.9,0,25,0
2004/10/2,22:30,13.2,0,89.5,0,25.2,0,52.3,0,21.5,0,22.9,0,24.9,0
2004/10/2,22:45,13.1,0,90.3,0,25.2,0,52.2,0,21.5,0,22.9,0,24.9,0
2004/10/2,23:00,13.1,0,90.4,0,25.1,0,52,0,21.4,0,22.9,0,24.8,0
2004/10/2,23:15,13,0,91.3,0,25.1,0,51.9,0,21.4,0,22.9,0,24.8,0
2004/10/2,23:30,12.9,0,91.5,0,25,0,51.8,0,21.4,0,22.9,0,24.7,0
2004/10/2,23:45,12.9,0,91.5,0,24.9,0,51.7,0,21.4,0,22.9,0,24.7,0
2004/10/3,0:00,13,0,91.3,0,24.8,0,51.6,0,21.4,0,22.9,0,24.6,0
2004/10/3,0:15,12.9,0,91.7,0,24.8,0,51.6,0,21.4,0,22.9,0,24.5,0
2004/10/3,0:30,12.9,0,91.9,0,24.7,0,51.6,0,21.4,0,23,0,24.5,0
2004/10/3,0:45,12.8,0,91.7,0,24.6,0,51.5,0,21.3,0,23,0,24.5,0
2004/10/3,1:00,12.8,0,91.9,0,24.6,0,51.5,0,21.3,0,23,0,24.4,0
2004/10/3,1:15,12.9,0,92.1,0,24.5,0,51.4,0,21.3,0,23,0,24.3,0
2004/10/3,1:30,13,0,91.8,0,24.4,0,51.3,0,21.3,0,23,0,24.3,0
2004/10/3,1:45,13.1,0,91.8,0,24.3,0,51.2,0,21.3,0,23.1,0,24.2,0
2004/10/3,2:00,13.1,0,91.7,0,24.3,0,51.1,0,21.3,0,23.1,0,24.1,0
2004/10/3,2:15,13,0,91.8,0,24.2,0,50.9,0,21.3,0,23.1,0,24,0
2004/10/3,2:30,13,0,91.7,0,24.1,0,50.9,0,21.3,0,23.1,0,24,0
2004/10/3,2:45,13,0,91.6,0,24.1,0,50.8,0,21.3,0,23.1,0,23.9,0
2004/10/3,3:00,13,0,91.7,0,24,0,50.7,0,21.2,0,23.1,0,23.9,0
2004/10/3,3:15,12.9,0,91.7,0,24,0,50.7,0,21.2,0,23.1,0,23.8,0
2004/10/3,3:30,13,0,91.1,0,23.9,0,50.6,0,21.2,0,23.2,0,23.7,0
2004/10/3,3:45,12.9,0,91.1,0,23.8,0,50.6,0,21.2,0,23.2,0,23.6,0
2004/10/3,4:00,12.9,0,91.3,0,23.8,0,50.5,0,21.2,0,23.2,0,23.5,0
2004/10/3,4:15,12.8,0,91.0,0,23.7,0,50.6,0,21.1,0,23.2,0,23.5,0
2004/10/3,4:30,12.8,0,91.5,0,23.6,0,50.6,0,21.1,0,23.2,0,23.4,0
2004/10/3,4:45,12.8,0,91.5,0,23.6,0,50.7,0,21.1,0,23.2,0,23.4,0
2004/10/3,5:00,12.7,0,90.7,0,23.6,0,50.7,0,21.1,0,23.2,0,23.3,0
2004/10/3,5:15,12.7,0,90.3,0,23.5,0,50.7,0,21,0,23.2,0,23.3,0
2004/10/3,5:30,12.7,0,90.3,0,23.5,0,50.8,0,21,0,23.2,0,23.2,0
2004/10/3,5:45,12.7,0,90.1,0,23.4,0,50.8,0,21,0,23.3,0,23.2,0
2004/10/3,6:00,12.9,0,89.6,0,23.4,0,50.8,0,20.9,0,23.3,0,23.1,0
2004/10/3,6:15,12.8,0,90.4,0,23.3,0,50.8,0,20.9,0,23.3,0,23.1,0
2004/10/3,6:30,12.9,0,90.4,0,23.3,0,50.8,0,20.9,0,23.3,0,23,0
2004/10/3,6:45,13,0,90.6,0,23.2,0,50.8,0,20.8,0,23.3,0,23,0
2004/10/3,7:00,13,0,90.5,0,23.2,0,50.8,0,20.8,0,23.3,0,22.9,0
2004/10/3,7:15,13.1,0,90.2,0,23.1,0,50.8,0,20.8,0,23.3,0,22.9,0
2004/10/3,7:30,13.2,0,89.9,0,23.1,0,50.8,0,20.7,0,23.3,0,22.9,0
2004/10/3,7:45,13.3,0,89.2,0,23,0,50.8,0,20.7,0,23.3,0,22.8,0
2004/10/3,8:00,13.3,0,89.8,0,23,0,50.9,0,20.7,0,22,0,22.8,0
2004/10/3,8:15,13.4,0,89.8,0,23,0,51.7,0,20.6,0,22,0,23.4,0
2004/10/3,8:30,13.5,0,88.9,0,23.1,0,52.7,0,20.5,0,22.1,0,23.5,0
2004/10/3,8:45,13.7,0,87.7,0,23.1,0,53,0,20.5,0,22.1,0,23.5,0
2004/10/3,9:00,13.9,0,87.0,0,23.1,0,53.1,0,20.4,0,21.6,0,23.4,0
2004/10/3,9:15,13.9,0,86.8,0,23.1,0,53,0,20.4,0,21.8,0,23.3,0
2004/10/3,9:30,13.9,0,86.0,0,23.2,0,53.1,0,20.3,0,21.8,0,23.3,0
2004/10/3,9:45,13.9,0,85.8,0,23.2,0,53,0,20.3,0,21.8,0,23.3,0
2004/10/3,10:00,14,0,85.5,0,23.2,0,53,0,20.3,0,21.9,0,23.3,0
2004/10/3,10:15,14.1,0,85.2,0,23.2,0,53,0,20.2,0,21.9,0,23.3,0
2004/10/3,10:30,14,0,86.0,0,23.3,0,53,0,20.2,0,21.9,0,23.3,0
2004/10/3,10:45,14.2,0,86.0,0,23.3,0,53.1,0,20.2,0,21.9,0,23.3,0
2004/10/3,11:00,14.3,0,85.3,0,23.4,0,53.1,0,20.2,0,21.9,0,23.4,0
2004/10/3,11:15,14.4,0,85.0,0,23.4,0,53.3,0,20.2,0,22,0,23.4,0
2004/10/3,11:30,14.6,0,83.9,0,23.5,0,53.1,0,20.2,0,21.5,0,23.5,0
2004/10/3,11:45,14.7,0,83.1,0,23.5,0,53,0,20.2,0,21.5,0,23.5,0
2004/10/3,12:00,14.6,0,83.8,0,23.5,0,52.8,0,20.2,0,21.6,0,23.5,0
2004/10/3,12:15,14.8,0,83.1,0,23.5,0,52.5,0,20.2,0,21.6,0,23.5,0
2004/10/3,12:30,14.8,0,82.0,0,23.5,0,52.4,0,20.2,0,21.6,0,23.5,0
2004/10/3,12:45,14.7,0,82.3,0,23.5,0,52.7,0,20.2,0,21.6,0,23.5,0
2004/10/3,13:00,14.7,0,82.4,0,23.6,0,53,0,20.2,0,22.6,0,23.6,0
2004/10/3,13:15,14.7,0,83.5,0,23.6,0,53,0,20.1,0,22.8,0,23.7,0
2004/10/3,13:30,14.7,0,83.4,0,23.6,0,52.9,0,20.1,0,22.8,0,23.6,0
2004/10/3,13:45,14.7,0,84.2,0,23.6,0,52.8,0,20,0,22.9,0,23.6,0
2004/10/3,14:00,14.6,0,84.6,0,23.6,0,52.6,0,20,0,22.9,0,23.5,0
2004/10/3,14:15,14.4,0,85.6,0,23.5,0,52.5,0,20,0,22.9,0,23.5,0
2004/10/3,14:30,14.5,0,85.2,0,23.5,0,52.4,0,20,0,22.9,0,23.5,0
2004/10/3,14:45,14.5,0,85.7,0,23.5,0,52.3,0,19.9,0,22.9,0,23.4,0
2004/10/3,15:00,14.5,0,85.8,0,23.4,0,52.3,0,19.9,0,22.9,0,23.4,0
2004/10/3,15:15,14.4,0,85.7,0,23.4,0,52.2,0,19.9,0,22.9,0,23.4,0
2004/10/3,15:30,14.4,0,85.5,0,23.4,0,52.1,0,19.9,0,22.9,0,23.3,0
2004/10/3,15:45,14.3,0,86.0,0,23.3,0,52.1,0,19.8,0,22.9,0,23.2,0
2004/10/3,16:00,14.3,0,87.2,0,23.3,0,52,0,19.8,0,22.9,0,23.2,0
2004/10/3,16:15,14.2,0,87.9,0,23.3,0,52,0,19.8,0,23,0,23.2,0
2004/10/3,16:30,14.2,0,88.3,0,23.2,0,51.9,0,19.8,0,23,0,23.1,0
2004/10/3,16:45,14.1,0,88.4,0,23.2,0,51.9,0,19.8,0,23,0,23.1,0
2004/10/3,17:00,14,0,88.1,0,23.1,0,51.8,0,19.7,0,23,0,23,0
2004/10/3,17:15,13.9,0,89.0,0,23.1,0,51.7,0,19.7,0,23,0,23,0
2004/10/3,17:30,13.8,0,90.0,0,23.1,0,51.7,0,19.7,0,23,0,22.9,0
2004/10/3,17:45,13.7,0,89.9,0,23,0,51.7,0,19.7,0,23,0,22.9,0
2004/10/3,18:00,13.6,0,89.8,0,23,0,51.6,0,19.7,0,23,0,22.8,0
2004/10/3,18:15,13.6,0,89.1,0,22.9,0,51.6,0,19.7,0,23,0,22.8,0
2004/10/3,18:30,13.5,0,88.2,0,22.9,0,51.6,0,19.6,0,23,0,22.7,0
2004/10/3,18:45,13.5,0,88.7,0,22.9,0,51.5,0,19.6,0,23,0,22.7,0
2004/10/3,19:00,13.4,0,88.4,0,22.8,0,51.5,0,19.6,0,23,0,22.6,0
2004/10/3,19:15,13.4,0,88.4,0,22.8,0,51.5,0,19.6,0,23,0,22.6,0
2004/10/3,19:30,13.5,0,88.1,0,22.7,0,51.4,0,19.5,0,23,0,22.5,0
2004/10/3,19:45,13.4,0,88.3,0,22.7,0,51.4,0,19.5,0,23,0,22.5,0
2004/10/3,20:00,13.5,0,87.9,0,22.7,0,51.3,0,19.5,0,23,0,22.4,0
2004/10/3,20:15,13.6,0,88.1,0,22.6,0,51.4,0,19.5,0,23,0,22.4,0
2004/10/3,20:30,13.5,0,88.6,0,22.6,0,51.7,0,19.4,0,23,0,22.5,0
2004/10/3,20:45,13.5,0,89.3,0,22.6,0,51.8,0,19.5,0,23,0,22.5,0
2004/10/3,21:00,13.5,0,88.9,0,22.6,0,51.8,0,19.5,0,23,0,22.5,0
2004/10/3,21:15,13.5,0,89.6,0,22.6,0,52,0,19.5,0,22.6,0,22.5,0
2004/10/3,21:30,13.4,0,90.8,0,22.6,0,52.1,0,19.5,0,22.6,0,22.4,0
2004/10/3,21:45,13.3,0,90.8,0,22.6,0,52.1,0,19.5,0,22.6,0,22.3,0
2004/10/3,22:00,13.3,0,91.0,0,22.6,0,52.1,0,19.5,0,22.6,0,22.2,0
2004/10/3,22:15,13.3,0,91.2,0,22.6,0,52.1,0,19.5,0,22.6,0,22.2,0
2004/10/3,22:30,13.3,0,91.1,0,22.6,0,52,0,19.5,0,22.6,0,22.2,0
2004/10/3,22:45,13.2,0,91.3,0,22.6,0,52,0,19.5,0,22.6,0,22.2,0
2004/10/3,23:00,13.2,0,91.0,0,22.6,0,52,0,19.5,0,22.6,0,22.2,0
2004/10/3,23:15,13.2,0,91.4,0,22.6,0,52,0,19.6,0,22.6,0,22.2,0
2004/10/3,23:30,13.2,0,91.6,0,22.5,0,51.9,0,19.6,0,22.6,0,22.2,0
2004/10/3,23:45,13.2,0,91.4,0,22.5,0,51.9,0,19.6,0,22.6,0,22.2,0
2004/10/4,0:00,13.2,0,91.5,0,22.5,0,51.8,0,19.6,0,22.6,0,22.1,0
2004/10/4,0:15,13.1,0,91.6,0,22.4,0,51.8,0,19.7,0,22.6,0,22,0
2004/10/4,0:30,13.2,0,91.7,0,22.3,0,51.8,0,19.7,0,22.6,0,21.9,0
2004/10/4,0:45,13.2,0,91.4,0,22.3,0,51.8,0,19.7,0,22.6,0,21.9,0
2004/10/4,1:00,13.3,0,91.5,0,22.2,0,51.7,0,19.8,0,22.6,0,21.8,0
2004/10/4,1:15,13.2,0,91.3,0,22.2,0,51.8,0,19.8,0,22.6,0,21.8,0
2004/10/4,1:30,13.2,0,90.0,0,22.2,0,51.8,0,19.9,0,22.5,0,21.8,0
2004/10/4,1:45,13.1,0,89.4,0,22.1,0,51.9,0,20,0,22.5,0,21.8,0
2004/10/4,2:00,13.2,0,89.6,0,22.1,0,51.9,0,20,0,22.5,0,21.8,0
2004/10/4,2:15,13.1,0,90.6,0,22.1,0,52,0,20,0,22.5,0,21.7,0
2004/10/4,2:30,13,0,91.5,0,22,0,52,0,20,0,22.5,0,21.7,0
2004/10/4,2:45,13,0,91.7,0,22,0,52.1,0,20,0,22.5,0,21.7,0
2004/10/4,3:00,13,0,91.4,0,22,0,52.1,0,20,0,22.5,0,21.7,0
2004/10/4,3:15,13,0,91.7,0,22,0,52.1,0,20,0,22.5,0,21.7,0
2004/10/4,3:30,12.9,0,91.9,0,21.9,0,52.2,0,20,0,22.5,0,21.7,0
2004/10/4,3:45,12.9,0,92.1,0,21.9,0,52.3,0,20,0,22.5,0,21.6,0
2004/10/4,4:00,13,0,92.1,0,21.9,0,52.3,0,20.1,0,22.5,0,21.6,0
2004/10/4,4:15,13,0,91.7,0,21.8,0,52.3,0,20,0,22.5,0,21.6,0
2004/10/4,4:30,12.9,0,91.4,0,21.8,0,52.3,0,20.1,0,22.5,0,21.5,0
2004/10/4,4:45,13,0,91.6,0,21.8,0,52.3,0,20.1,0,22.5,0,21.5,0
2004/10/4,5:00,13,0,91.7,0,21.7,0,52.4,0,20.1,0,22.5,0,21.5,0
2004/10/4,5:15,13,0,91.6,0,21.7,0,52.3,0,20.1,0,22.4,0,21.4,0
2004/10/4,5:30,13,0,91.7,0,21.6,0,52.4,0,20.1,0,22.4,0,21.4,0
2004/10/4,5:45,13,0,91.8,0,21.6,0,52.9,0,20.1,0,22.4,0,21.4,0
2004/10/4,6:00,13.1,0,92.2,0,21.7,0,53.3,0,20.1,0,22.4,0,21.4,0
2004/10/4,6:15,13.1,0,91.7,0,21.6,0,53.3,0,20.1,0,22.4,0,21.4,0
2004/10/4,6:30,13.2,0,91.2,0,21.6,0,53.3,0,20,0,21.3,0,21.6,0
2004/10/4,6:45,13.3,0,91.4,0,21.5,0,53.1,0,19.9,0,21.3,0,22.1,0
2004/10/4,7:00,13.5,0,90.8,0,21.6,0,54.1,0,19.8,0,21.3,0,22.5,0
2004/10/4,7:15,13.7,0,89.2,0,21.7,0,54.9,0,19.8,0,21.3,0,22.4,0
2004/10/4,7:30,13.7,0,88.9,0,21.7,0,55.1,0,19.7,0,21.7,0,22.3,0
2004/10/4,7:45,14,0,88.0,0,21.7,0,55.1,0,19.6,0,21.7,0,22.2,0
2004/10/4,8:00,14.3,0,87.7,0,21.7,0,55.2,0,19.5,0,21.7,0,22.1,0
2004/10/4,8:15,14.5,0,86.2,0,21.7,0,55,0,19.5,0,21.7,0,22,0
2004/10/4,8:30,15.1,0,85.3,0,21.8,0,54.9,0,19.5,0,21.7,0,21.9,0
2004/10/4,8:45,15.6,0,81.7,0,21.8,0,54.9,0,19.4,0,21.7,0,22,0
2004/10/4,9:00,15.9,0,81.0,0,21.8,0,55,0,19.4,0,21.8,0,22.2,0
2004/10/4,9:15,16,0,80.8,0,21.9,0,55.2,0,19.4,0,21.8,0,22.3,0
2004/10/4,9:30,16.5,0,79.5,0,21.9,0,55.5,0,19.4,0,21.8,0,22.4,0
2004/10/4,9:45,16.9,0,77.6,0,22,0,55.9,0,19.4,0,21.8,0,22.5,0
2004/10/4,10:00,17,0,77.4,0,22.1,0,56.2,0,19.4,0,21.8,0,22.6,0
2004/10/4,10:15,17.7,0,74.6,0,22.2,0,56.6,0,19.5,0,21.8,0,22.8,0
2004/10/4,10:30,17.8,0,73.8,0,22.3,0,57,0,19.5,0,21.8,0,22.9,0
2004/10/4,10:45,18,0,72.9,0,22.4,0,57.4,0,19.5,0,21.9,0,23.2,0
2004/10/4,11:00,18.1,0,73.7,0,22.5,0,57.8,0,19.6,0,21.9,0,23.3,0
2004/10/4,11:15,18.3,0,73.3,0,22.6,0,58.1,0,19.6,0,21.9,0,23.4,0
2004/10/4,11:30,18.3,0,72.6,0,22.8,0,58.3,0,19.6,0,21.9,0,23.5,0
2004/10/4,11:45,18.6,0,72.0,0,22.9,0,58.6,0,19.7,0,21.9,0,23.7,0
2004/10/4,12:00,19,0,70.8,0,23,0,58.8,0,19.7,0,22,0,23.8,0
2004/10/4,12:15,19.1,0,70.4,0,23.2,0,59,0,19.7,0,22,0,24,0
2004/10/4,12:30,19.4,0,68.7,0,23.3,0,59.1,0,19.8,0,22,0,24.1,0
2004/10/4,12:45,19.1,0,69.8,0,23.4,0,59.2,0,19.8,0,22,0,24.3,0
2004/10/4,13:00,19.1,0,70.5,0,23.6,0,59.3,0,19.9,0,22.1,0,24.4,0
2004/10/4,13:15,19,0,71.5,0,23.7,0,59.4,0,19.9,0,22.1,0,24.5,0
2004/10/4,13:30,18.9,0,69.6,0,23.8,0,59.3,0,19.9,0,22.1,0,24.6,0
2004/10/4,13:45,18.8,0,73.6,0,23.9,0,59.2,0,20,0,22.2,0,24.6,0
2004/10/4,14:00,18.7,0,73.6,0,24,0,59.1,0,20,0,22.2,0,24.7,0
2004/10/4,14:15,18.7,0,76.6,0,24.1,0,59,0,20.1,0,22.2,0,24.7,0
2004/10/4,14:30,18.8,0,75.0,0,24.1,0,58.9,0,20.1,0,22.3,0,24.8,0
2004/10/4,14:45,18.9,0,74.5,0,24.2,0,58.8,0,20.1,0,22.3,0,24.8,0
2004/10/4,15:00,18.9,0,73.3,0,24.3,0,58.7,0,20.2,0,22.3,0,24.9,0
2004/10/4,15:15,18.9,0,74.5,0,24.3,0,58.5,0,20.2,0,22.4,0,24.9,0
2004/10/4,15:30,18.6,0,78.8,0,24.3,0,58.4,0,20.2,0,22.4,0,24.9,0
2004/10/4,15:45,18.3,0,81.1,0,24.4,0,58.2,0,20.2,0,22.5,0,24.9,0
2004/10/4,16:00,18,0,82.5,0,24.4,0,58.1,0,20.3,0,22.5,0,25,0
2004/10/4,16:15,17.8,0,83.5,0,24.4,0,58,0,20.3,0,22.5,0,24.9,0
2004/10/4,16:30,17.6,0,84.7,0,24.4,0,57.8,0,20.3,0,22.6,0,24.9,0
2004/10/4,16:45,17.5,0,85.3,0,24.5,0,57.7,0,20.3,0,22.6,0,24.9,0
2004/10/4,17:00,17.2,0,85.7,0,24.5,0,57.5,0,20.3,0,22.6,0,24.9,0
2004/10/4,17:15,17,0,86.2,0,24.5,0,57.4,0,20.3,0,22.7,0,24.8,0
2004/10/4,17:30,16.8,0,87.1,0,24.5,0,57.4,0,20.4,0,22.7,0,24.8,0
2004/10/4,17:45,16.7,0,87.8,0,24.5,0,57.1,0,20.4,0,22.7,0,24.9,0
2004/10/4,18:00,16.7,0,88.0,0,24.5,0,56.9,0,20.4,0,22.8,0,25.2,0
2004/10/4,18:15,16.7,0,88.1,0,24.4,0,56.9,0,20.4,0,22.8,0,25.6,0
2004/10/4,18:30,16.6,0,88.0,0,24.5,0,57.4,0,20.4,0,22.8,0,25.9,0
2004/10/4,18:45,16.5,0,87.7,0,24.6,0,58,0,20.4,0,22.9,0,26.2,0
2004/10/4,19:00,16.5,0,88.2,0,24.6,0,58.2,0,20.4,0,22.9,0,26.2,0
2004/10/4,19:15,16.5,0,88.6,0,24.7,0,58.5,0,20.4,0,22.9,0,26.1,0
2004/10/4,19:30,16.5,0,88.1,0,24.8,0,58.7,0,20.4,0,23,0,25.9,0
2004/10/4,19:45,16.4,0,88.6,0,24.9,0,58.7,0,20.4,0,23,0,25.7,0
2004/10/4,20:00,16.4,0,87.9,0,24.9,0,58.5,0,20.4,0,23,0,25.6,0
2004/10/4,20:15,16.4,0,87.0,0,24.9,0,58.4,0,20.4,0,23.1,0,25.5,0
2004/10/4,20:30,16.4,0,87.1,0,25,0,58.2,0,20.4,0,23.1,0,25.4,0